Year,Month,Day,Hour,Minute,Value (Times are PST for windgust in km/hr)
2010,04,02,00,00,30.60
2010,04,02,00,01,25.70
2010,04,02,00,02,22.50
2010,04,02,00,03,24.20
2010,04,02,00,04,27.40
2010,04,02,00,05,25.70
2010,04,02,00,06,27.40
2010,04,02,00,07,32.20
2010,04,02,00,08,32.20
2010,04,02,00,09,33.80
2010,04,02,00,10,35.40
2010,04,02,00,11,30.60
2010,04,02,00,12,27.40
2010,04,02,00,13,19.30
2010,04,02,00,14,30.60
2010,04,02,00,15,27.40
2010,04,02,00,16,25.70
2010,04,02,00,17,30.60
2010,04,02,00,18,27.40
2010,04,02,00,19,25.70
2010,04,02,00,20,32.20
2010,04,02,00,21,25.70
2010,04,02,00,22,24.20
2010,04,02,00,23,25.70
2010,04,02,00,24,19.30
2010,04,02,00,25,25.70
2010,04,02,00,26,27.40
2010,04,02,00,27,38.60
2010,04,02,00,28,32.20
2010,04,02,00,29,30.60
2010,04,02,00,30,29.00
2010,04,02,00,31,29.00
2010,04,02,00,32,25.70
2010,04,02,00,33,37.00
2010,04,02,00,34,27.40
2010,04,02,00,35,27.40
2010,04,02,00,36,25.70
2010,04,02,00,37,25.70
2010,04,02,00,38,30.60
2010,04,02,00,39,33.80
2010,04,02,00,40,24.20
2010,04,02,00,41,25.70
2010,04,02,00,42,29.00
2010,04,02,00,43,24.20
2010,04,02,00,44,22.50
2010,04,02,00,45,25.70
2010,04,02,00,46,27.40
2010,04,02,00,47,30.60
2010,04,02,00,48,25.70
2010,04,02,00,49,35.40
2010,04,02,00,50,29.00
2010,04,02,00,51,27.40
2010,04,02,00,52,37.00
2010,04,02,00,53,32.20
2010,04,02,00,54,27.40
2010,04,02,00,55,25.70
2010,04,02,00,56,27.40
2010,04,02,00,57,27.40
2010,04,02,00,58,29.00
2010,04,02,00,59,33.80
2010,04,02,01,00,29.00
2010,04,02,01,01,32.20
2010,04,02,01,02,32.20
2010,04,02,01,03,29.00
2010,04,02,01,04,30.60
2010,04,02,01,05,35.40
2010,04,02,01,06,25.70
2010,04,02,01,07,27.40
2010,04,02,01,08,29.00
2010,04,02,01,09,37.00
2010,04,02,01,10,38.60
2010,04,02,01,11,30.60
2010,04,02,01,12,20.90
2010,04,02,01,13,32.20
2010,04,02,01,14,29.00
2010,04,02,01,15,27.40
2010,04,02,01,16,25.70
2010,04,02,01,17,29.00
2010,04,02,01,18,33.80
2010,04,02,01,19,30.60
2010,04,02,01,20,20.90
2010,04,02,01,21,22.50
2010,04,02,01,22,30.60
2010,04,02,01,23,30.60
2010,04,02,01,24,25.70
2010,04,02,01,25,32.20
2010,04,02,01,26,33.80
2010,04,02,01,27,24.20
2010,04,02,01,28,35.40
2010,04,02,01,29,33.80
2010,04,02,01,30,27.40
2010,04,02,01,31,32.20
2010,04,02,01,32,25.70
2010,04,02,01,33,30.60
2010,04,02,01,34,30.60
2010,04,02,01,35,46.70
2010,04,02,01,36,30.60
2010,04,02,01,37,30.60
2010,04,02,01,38,29.00
2010,04,02,01,39,24.20
2010,04,02,01,40,29.00
2010,04,02,01,41,30.60
2010,04,02,01,42,38.60
2010,04,02,01,43,38.60
2010,04,02,01,44,30.60
2010,04,02,01,45,37.00
2010,04,02,01,46,30.60
2010,04,02,01,47,27.40
2010,04,02,01,48,35.40
2010,04,02,01,49,32.20
2010,04,02,01,50,46.70
2010,04,02,01,51,33.80
2010,04,02,01,52,22.50
2010,04,02,01,53,33.80
2010,04,02,01,54,33.80
2010,04,02,01,55,37.00
2010,04,02,01,56,43.50
2010,04,02,01,57,37.00
2010,04,02,01,58,38.60
2010,04,02,01,59,33.80
2010,04,02,02,00,33.80
2010,04,02,02,01,35.40
2010,04,02,02,02,40.20
2010,04,02,02,03,37.00
2010,04,02,02,04,40.20
2010,04,02,02,05,32.20
2010,04,02,02,06,40.20
2010,04,02,02,07,41.80
2010,04,02,02,08,32.20
2010,04,02,02,09,33.80
2010,04,02,02,10,30.60
2010,04,02,02,11,27.40
2010,04,02,02,12,38.60
2010,04,02,02,13,38.60
2010,04,02,02,14,32.20
2010,04,02,02,15,24.20
2010,04,02,02,16,24.20
2010,04,02,02,17,29.00
2010,04,02,02,18,29.00
2010,04,02,02,19,33.80
2010,04,02,02,20,33.80
2010,04,02,02,21,37.00
2010,04,02,02,22,41.80
2010,04,02,02,23,32.20
2010,04,02,02,24,33.80
2010,04,02,02,25,35.40
2010,04,02,02,26,30.60
2010,04,02,02,27,37.00
2010,04,02,02,28,37.00
2010,04,02,02,29,41.80
2010,04,02,02,30,37.00
2010,04,02,02,31,35.40
2010,04,02,02,32,43.50
2010,04,02,02,33,38.60
2010,04,02,02,34,37.00
2010,04,02,02,35,38.60
2010,04,02,02,36,30.60
2010,04,02,02,37,25.70
2010,04,02,02,38,30.60
2010,04,02,02,39,35.40
2010,04,02,02,40,24.20
2010,04,02,02,41,37.00
2010,04,02,02,42,37.00
2010,04,02,02,43,35.40
2010,04,02,02,44,33.80
2010,04,02,02,45,25.70
2010,04,02,02,46,33.80
2010,04,02,02,47,37.00
2010,04,02,02,48,32.20
2010,04,02,02,49,30.60
2010,04,02,02,50,40.20
2010,04,02,02,51,37.00
2010,04,02,02,52,33.80
2010,04,02,02,53,32.20
2010,04,02,02,54,35.40
2010,04,02,02,55,32.20
2010,04,02,02,56,30.60
2010,04,02,02,57,22.50
2010,04,02,02,58,27.40
2010,04,02,02,59,40.20
2010,04,02,03,00,35.40
2010,04,02,03,01,22.50
2010,04,02,03,02,22.50
2010,04,02,03,03,38.60
2010,04,02,03,04,38.60
2010,04,02,03,05,33.80
2010,04,02,03,06,25.70
2010,04,02,03,07,24.20
2010,04,02,03,08,27.40
2010,04,02,03,09,27.40
2010,04,02,03,10,24.20
2010,04,02,03,11,24.20
2010,04,02,03,12,27.40
2010,04,02,03,13,22.50
2010,04,02,03,14,25.70
2010,04,02,03,15,17.70
2010,04,02,03,16,25.70
2010,04,02,03,17,32.20
2010,04,02,03,18,22.50
2010,04,02,03,19,27.40
2010,04,02,03,20,32.20
2010,04,02,03,21,29.00
2010,04,02,03,22,22.50
2010,04,02,03,23,27.40
2010,04,02,03,24,19.30
2010,04,02,03,25,29.00
2010,04,02,03,26,27.40
2010,04,02,03,27,24.20
2010,04,02,03,28,20.90
2010,04,02,03,29,22.50
2010,04,02,03,30,19.30
2010,04,02,03,31,20.90
2010,04,02,03,32,17.70
2010,04,02,03,33,19.30
2010,04,02,03,34,17.70
2010,04,02,03,35,17.70
2010,04,02,03,36,14.50
2010,04,02,03,37,16.10
2010,04,02,03,38,22.50
2010,04,02,03,39,20.90
2010,04,02,03,40,19.30
2010,04,02,03,41,19.30
2010,04,02,03,42,19.30
2010,04,02,03,43,6.40
2010,04,02,03,44,17.70
2010,04,02,03,45,14.50
2010,04,02,03,46,12.90
2010,04,02,03,47,9.60
2010,04,02,03,48,6.40
2010,04,02,03,49,9.60
2010,04,02,03,50,14.50
2010,04,02,03,51,9.60
2010,04,02,03,52,8.10
2010,04,02,03,53,11.30
2010,04,02,03,54,8.10
2010,04,02,03,55,8.10
2010,04,02,03,56,6.40
2010,04,02,03,57,4.80
2010,04,02,03,58,3.20
2010,04,02,03,59,0.00
2010,04,02,04,00,0.00
2010,04,02,04,01,0.00
2010,04,02,04,02,3.20
2010,04,02,04,03,4.80
2010,04,02,04,04,4.80
2010,04,02,04,05,6.40
2010,04,02,04,06,9.60
2010,04,02,04,07,8.10
2010,04,02,04,08,8.10
2010,04,02,04,09,8.10
2010,04,02,04,10,8.10
2010,04,02,04,11,14.50
2010,04,02,04,12,9.60
2010,04,02,04,13,9.60
2010,04,02,04,14,9.60
2010,04,02,04,15,9.60
2010,04,02,04,16,6.40
2010,04,02,04,17,4.80
2010,04,02,04,18,4.80
2010,04,02,04,19,9.60
2010,04,02,04,20,8.10
2010,04,02,04,21,8.10
2010,04,02,04,22,9.60
2010,04,02,04,23,14.50
2010,04,02,04,24,11.30
2010,04,02,04,25,8.10
2010,04,02,04,26,14.50
2010,04,02,04,27,16.10
2010,04,02,04,28,14.50
2010,04,02,04,29,16.10
2010,04,02,04,30,11.30
2010,04,02,04,31,11.30
2010,04,02,04,32,11.30
2010,04,02,04,33,16.10
2010,04,02,04,34,9.60
2010,04,02,04,35,11.30
2010,04,02,04,36,8.10
2010,04,02,04,37,9.60
2010,04,02,04,38,16.10
2010,04,02,04,39,14.50
2010,04,02,04,40,16.10
2010,04,02,04,41,11.30
2010,04,02,04,42,16.10
2010,04,02,04,43,22.50
2010,04,02,04,44,16.10
2010,04,02,04,45,30.60
2010,04,02,04,46,33.80
2010,04,02,04,47,45.10
2010,04,02,04,48,38.60
2010,04,02,04,49,43.50
2010,04,02,04,50,41.80
2010,04,02,04,51,38.60
2010,04,02,04,52,29.00
2010,04,02,04,53,41.80
2010,04,02,04,54,45.10
2010,04,02,04,55,33.80
2010,04,02,04,56,38.60
2010,04,02,04,57,48.30
2010,04,02,04,58,32.20
2010,04,02,04,59,41.80
2010,04,02,05,00,38.60
2010,04,02,05,01,38.60
2010,04,02,05,02,46.70
2010,04,02,05,03,37.00
2010,04,02,05,04,33.80
2010,04,02,05,05,40.20
2010,04,02,05,06,41.80
2010,04,02,05,07,38.60
2010,04,02,05,08,35.40
2010,04,02,05,09,40.20
2010,04,02,05,10,43.50
2010,04,02,05,11,37.00
2010,04,02,05,12,43.50
2010,04,02,05,13,38.60
2010,04,02,05,14,43.50
2010,04,02,05,15,35.40
2010,04,02,05,16,40.20
2010,04,02,05,17,37.00
2010,04,02,05,18,29.00
2010,04,02,05,19,33.80
2010,04,02,05,20,41.80
2010,04,02,05,21,35.40
2010,04,02,05,22,37.00
2010,04,02,05,23,40.20
2010,04,02,05,24,38.60
2010,04,02,05,25,40.20
2010,04,02,05,26,32.20
2010,04,02,05,27,38.60
2010,04,02,05,28,43.50
2010,04,02,05,29,40.20
2010,04,02,05,30,48.30
2010,04,02,05,31,37.00
2010,04,02,05,32,35.40
2010,04,02,05,33,40.20
2010,04,02,05,34,25.70
2010,04,02,05,35,38.60
2010,04,02,05,36,38.60
2010,04,02,05,37,38.60
2010,04,02,05,38,40.20
2010,04,02,05,39,41.80
2010,04,02,05,40,37.00
2010,04,02,05,41,24.20
2010,04,02,05,42,30.60
2010,04,02,05,43,37.00
2010,04,02,05,44,54.70
2010,04,02,05,45,37.00
2010,04,02,05,46,53.10
2010,04,02,05,47,45.10
2010,04,02,05,48,45.10
2010,04,02,05,49,43.50
2010,04,02,05,50,49.90
2010,04,02,05,51,46.70
2010,04,02,05,52,51.50
2010,04,02,05,53,49.90
2010,04,02,05,54,51.50
2010,04,02,05,55,53.10
2010,04,02,05,56,45.10
2010,04,02,05,57,56.30
2010,04,02,05,58,49.90
2010,04,02,05,59,62.70
2010,04,02,06,00,41.80
2010,04,02,06,01,46.70
2010,04,02,06,02,53.10
2010,04,02,06,03,59.50
2010,04,02,06,04,51.50
2010,04,02,06,05,57.90
2010,04,02,06,06,57.90
2010,04,02,06,07,53.10
2010,04,02,06,08,46.70
2010,04,02,06,09,48.30
2010,04,02,06,10,49.90
2010,04,02,06,11,56.30
2010,04,02,06,12,56.30
2010,04,02,06,13,62.70
2010,04,02,06,14,64.40
2010,04,02,06,15,74.00
2010,04,02,06,16,64.40
2010,04,02,06,17,53.10
2010,04,02,06,18,53.10
2010,04,02,06,19,66.00
2010,04,02,06,20,66.00
2010,04,02,06,21,61.20
2010,04,02,06,22,53.10
2010,04,02,06,23,64.40
2010,04,02,06,24,53.10
2010,04,02,06,25,54.70
2010,04,02,06,26,74.00
2010,04,02,06,27,57.90
2010,04,02,06,28,64.40
2010,04,02,06,29,62.70
2010,04,02,06,30,66.00
2010,04,02,06,31,66.00
2010,04,02,06,32,74.00
2010,04,02,06,33,62.70
2010,04,02,06,34,64.40
2010,04,02,06,35,54.70
2010,04,02,06,36,57.90
2010,04,02,06,37,48.30
2010,04,02,06,38,62.70
2010,04,02,06,39,53.10
2010,04,02,06,40,53.10
2010,04,02,06,41,70.80
2010,04,02,06,42,64.40
2010,04,02,06,43,72.40
2010,04,02,06,44,67.60
2010,04,02,06,45,57.90
2010,04,02,06,46,78.80
2010,04,02,06,47,64.40
2010,04,02,06,48,64.40
2010,04,02,06,49,64.40
2010,04,02,06,50,67.60
2010,04,02,06,51,51.50
2010,04,02,06,52,59.50
2010,04,02,06,53,64.40
2010,04,02,06,54,64.40
2010,04,02,06,55,64.40
2010,04,02,06,56,56.30
2010,04,02,06,57,75.60
2010,04,02,06,58,57.90
2010,04,02,06,59,75.60
2010,04,02,07,00,70.80
2010,04,02,07,01,66.00
2010,04,02,07,02,74.00
2010,04,02,07,03,66.00
2010,04,02,07,04,69.20
2010,04,02,07,05,64.40
2010,04,02,07,06,74.00
2010,04,02,07,07,57.90
2010,04,02,07,08,67.60
2010,04,02,07,09,66.00
2010,04,02,07,10,70.80
2010,04,02,07,11,62.70
2010,04,02,07,12,70.80
2010,04,02,07,13,82.10
2010,04,02,07,14,64.40
2010,04,02,07,15,59.50
2010,04,02,07,16,64.40
2010,04,02,07,17,62.70
2010,04,02,07,18,64.40
2010,04,02,07,19,64.40
2010,04,02,07,20,61.20
2010,04,02,07,21,54.70
2010,04,02,07,22,51.50
2010,04,02,07,23,62.70
2010,04,02,07,24,51.50
2010,04,02,07,25,53.10
2010,04,02,07,26,56.30
2010,04,02,07,27,62.70
2010,04,02,07,28,62.70
2010,04,02,07,29,46.70
2010,04,02,07,30,57.90
2010,04,02,07,31,59.50
2010,04,02,07,32,62.70
2010,04,02,07,33,64.40
2010,04,02,07,34,51.50
2010,04,02,07,35,56.30
2010,04,02,07,36,56.30
2010,04,02,07,37,56.30
2010,04,02,07,38,53.10
2010,04,02,07,39,59.50
2010,04,02,07,40,53.10
2010,04,02,07,41,62.70
2010,04,02,07,42,59.50
2010,04,02,07,43,61.20
2010,04,02,07,44,66.00
2010,04,02,07,45,56.30
2010,04,02,07,46,64.40
2010,04,02,07,47,51.50
2010,04,02,07,48,53.10
2010,04,02,07,49,61.20
2010,04,02,07,50,57.90
2010,04,02,07,51,54.70
2010,04,02,07,52,54.70
2010,04,02,07,53,64.40
2010,04,02,07,54,54.70
2010,04,02,07,55,69.20
2010,04,02,07,56,40.20
2010,04,02,07,57,53.10
2010,04,02,07,58,54.70
2010,04,02,07,59,62.70
2010,04,02,08,00,46.70
2010,04,02,08,01,51.50
2010,04,02,08,02,46.70
2010,04,02,08,03,54.70
2010,04,02,08,04,40.20
2010,04,02,08,05,64.40
2010,04,02,08,06,51.50
2010,04,02,08,07,61.20
2010,04,02,08,08,56.30
2010,04,02,08,09,49.90
2010,04,02,08,10,57.90
2010,04,02,08,11,59.50
2010,04,02,08,12,57.90
2010,04,02,08,13,66.00
2010,04,02,08,14,57.90
2010,04,02,08,15,64.40
2010,04,02,08,16,61.20
2010,04,02,08,17,61.20
2010,04,02,08,18,64.40
2010,04,02,08,19,69.20
2010,04,02,08,20,67.60
2010,04,02,08,21,69.20
2010,04,02,08,22,64.40
2010,04,02,08,23,57.90
2010,04,02,08,24,61.20
2010,04,02,08,25,64.40
2010,04,02,08,26,59.50
2010,04,02,08,27,54.70
2010,04,02,08,28,64.40
2010,04,02,08,29,53.10
2010,04,02,08,30,59.50
2010,04,02,08,31,54.70
2010,04,02,08,32,41.80
2010,04,02,08,33,53.10
2010,04,02,08,34,38.60
2010,04,02,08,35,45.10
2010,04,02,08,36,48.30
2010,04,02,08,37,43.50
2010,04,02,08,38,38.60
2010,04,02,08,39,56.30
2010,04,02,08,40,40.20
2010,04,02,08,41,49.90
2010,04,02,08,42,57.90
2010,04,02,08,43,57.90
2010,04,02,08,44,51.50
2010,04,02,08,45,48.30
2010,04,02,08,46,53.10
2010,04,02,08,47,59.50
2010,04,02,08,48,56.30
2010,04,02,08,49,45.10
2010,04,02,08,50,45.10
2010,04,02,08,51,57.90
2010,04,02,08,52,59.50
2010,04,02,08,53,54.70
2010,04,02,08,54,51.50
2010,04,02,08,55,64.40
2010,04,02,08,56,53.10
2010,04,02,08,57,56.30
2010,04,02,08,58,56.30
2010,04,02,08,59,46.70
2010,04,02,09,00,45.10
2010,04,02,09,01,54.70
2010,04,02,09,02,67.60
2010,04,02,09,03,62.70
2010,04,02,09,04,51.50
2010,04,02,09,05,48.30
2010,04,02,09,06,53.10
2010,04,02,09,07,41.80
2010,04,02,09,08,51.50
2010,04,02,09,09,56.30
2010,04,02,09,10,54.70
2010,04,02,09,11,56.30
2010,04,02,09,12,53.10
2010,04,02,09,13,41.80
2010,04,02,09,14,56.30
2010,04,02,09,15,53.10
2010,04,02,09,16,40.20
2010,04,02,09,17,56.30
2010,04,02,09,18,61.20
2010,04,02,09,19,54.70
2010,04,02,09,20,54.70
2010,04,02,09,21,59.50
2010,04,02,09,22,46.70
2010,04,02,09,23,53.10
2010,04,02,09,24,46.70
2010,04,02,09,25,54.70
2010,04,02,09,26,54.70
2010,04,02,09,27,54.70
2010,04,02,09,28,53.10
2010,04,02,09,29,53.10
2010,04,02,09,30,41.80
2010,04,02,09,31,57.90
2010,04,02,09,32,64.40
2010,04,02,09,33,61.20
2010,04,02,09,34,38.60
2010,04,02,09,35,56.30
2010,04,02,09,36,46.70
2010,04,02,09,37,45.10
2010,04,02,09,38,59.50
2010,04,02,09,39,41.80
2010,04,02,09,40,69.20
2010,04,02,09,41,56.30
2010,04,02,09,42,59.50
2010,04,02,09,43,69.20
2010,04,02,09,44,61.20
2010,04,02,09,45,41.80
2010,04,02,09,46,56.30
2010,04,02,09,47,51.50
2010,04,02,09,48,66.00
2010,04,02,09,49,45.10
2010,04,02,09,50,56.30
2010,04,02,09,51,53.10
2010,04,02,09,52,62.70
2010,04,02,09,53,66.00
2010,04,02,09,54,59.50
2010,04,02,09,55,64.40
2010,04,02,09,56,62.70
2010,04,02,09,57,59.50
2010,04,02,09,58,61.20
2010,04,02,09,59,56.30
2010,04,02,10,00,53.10
2010,04,02,10,01,38.60
2010,04,02,10,02,57.90
2010,04,02,10,03,54.70
2010,04,02,10,04,61.20
2010,04,02,10,05,64.40
2010,04,02,10,06,57.90
2010,04,02,10,07,54.70
2010,04,02,10,08,59.50
2010,04,02,10,09,56.30
2010,04,02,10,10,78.80
2010,04,02,10,11,61.20
2010,04,02,10,12,53.10
2010,04,02,10,13,74.00
2010,04,02,10,14,56.30
2010,04,02,10,15,64.40
2010,04,02,10,16,61.20
2010,04,02,10,17,49.90
2010,04,02,10,18,70.80
2010,04,02,10,19,67.60
2010,04,02,10,20,69.20
2010,04,02,10,21,69.20
2010,04,02,10,22,67.60
2010,04,02,10,23,53.10
2010,04,02,10,24,70.80
2010,04,02,10,25,59.50
2010,04,02,10,26,70.80
2010,04,02,10,27,67.60
2010,04,02,10,28,69.20
2010,04,02,10,29,62.70
2010,04,02,10,30,64.40
2010,04,02,10,31,74.00
2010,04,02,10,32,64.40
2010,04,02,10,33,70.80
2010,04,02,10,34,49.90
2010,04,02,10,35,56.30
2010,04,02,10,36,64.40
2010,04,02,10,37,62.70
2010,04,02,10,38,54.70
2010,04,02,10,39,69.20
2010,04,02,10,40,72.40
2010,04,02,10,41,72.40
2010,04,02,10,42,54.70
2010,04,02,10,43,56.30
2010,04,02,10,44,64.40
2010,04,02,10,45,64.40
2010,04,02,10,46,72.40
2010,04,02,10,47,74.00
2010,04,02,10,48,62.70
2010,04,02,10,49,72.40
2010,04,02,10,50,69.20
2010,04,02,10,51,49.90
2010,04,02,10,52,62.70
2010,04,02,10,53,54.70
2010,04,02,10,54,53.10
2010,04,02,10,55,59.50
2010,04,02,10,56,62.70
2010,04,02,10,57,59.50
2010,04,02,10,58,72.40
2010,04,02,10,59,66.00
2010,04,02,11,00,69.20
2010,04,02,11,01,80.50
2010,04,02,11,02,77.30
2010,04,02,11,03,64.40
2010,04,02,11,04,49.90
2010,04,02,11,05,43.50
2010,04,02,11,06,54.70
2010,04,02,11,07,53.10
2010,04,02,11,08,35.40
2010,04,02,11,09,74.00
2010,04,02,11,10,67.60
2010,04,02,11,11,41.80
2010,04,02,11,12,59.50
2010,04,02,11,13,62.70
2010,04,02,11,14,57.90
2010,04,02,11,15,57.90
2010,04,02,11,16,78.80
2010,04,02,11,17,69.20
2010,04,02,11,18,72.40
2010,04,02,11,19,59.50
2010,04,02,11,20,48.30
2010,04,02,11,21,54.70
2010,04,02,11,22,67.60
2010,04,02,11,23,66.00
2010,04,02,11,24,61.20
2010,04,02,11,25,62.70
2010,04,02,11,26,45.10
2010,04,02,11,27,67.60
2010,04,02,11,28,66.00
2010,04,02,11,29,61.20
2010,04,02,11,30,62.70
2010,04,02,11,31,67.60
2010,04,02,11,32,59.50
2010,04,02,11,33,53.10
2010,04,02,11,34,66.00
2010,04,02,11,35,66.00
2010,04,02,11,36,69.20
2010,04,02,11,37,54.70
2010,04,02,11,38,62.70
2010,04,02,11,39,54.70
2010,04,02,11,40,66.00
2010,04,02,11,41,64.40
2010,04,02,11,42,53.10
2010,04,02,11,43,59.50
2010,04,02,11,44,72.40
2010,04,02,11,45,57.90
2010,04,02,11,46,51.50
2010,04,02,11,47,69.20
2010,04,02,11,48,67.60
2010,04,02,11,49,48.30
2010,04,02,11,50,72.40
2010,04,02,11,51,62.70
2010,04,02,11,52,59.50
2010,04,02,11,53,61.20
2010,04,02,11,54,53.10
2010,04,02,11,55,64.40
2010,04,02,11,56,56.30
2010,04,02,11,57,75.60
2010,04,02,11,58,54.70
2010,04,02,11,59,66.00
2010,04,02,12,00,61.20
2010,04,02,12,01,59.50
2010,04,02,12,02,54.70
2010,04,02,12,03,59.50
2010,04,02,12,04,53.10
2010,04,02,12,05,53.10
2010,04,02,12,06,59.50
2010,04,02,12,07,62.70
2010,04,02,12,08,40.20
2010,04,02,12,09,51.50
2010,04,02,12,10,49.90
2010,04,02,12,11,54.70
2010,04,02,12,12,37.00
2010,04,02,12,13,62.70
2010,04,02,12,14,61.20
2010,04,02,12,15,56.30
2010,04,02,12,16,51.50
2010,04,02,12,17,53.10
2010,04,02,12,18,48.30
2010,04,02,12,19,61.20
2010,04,02,12,20,48.30
2010,04,02,12,21,62.70
2010,04,02,12,22,59.50
2010,04,02,12,23,53.10
2010,04,02,12,24,59.50
2010,04,02,12,25,49.90
2010,04,02,12,26,43.50
2010,04,02,12,27,53.10
2010,04,02,12,28,41.80
2010,04,02,12,29,40.20
2010,04,02,12,30,41.80
2010,04,02,12,31,64.40
2010,04,02,12,32,54.70
2010,04,02,12,33,48.30
2010,04,02,12,34,46.70
2010,04,02,12,35,40.20
2010,04,02,12,36,51.50
2010,04,02,12,37,49.90
2010,04,02,12,38,46.70
2010,04,02,12,39,54.70
2010,04,02,12,40,51.50
2010,04,02,12,41,59.50
2010,04,02,12,42,48.30
2010,04,02,12,43,59.50
2010,04,02,12,44,64.40
2010,04,02,12,45,61.20
2010,04,02,12,46,48.30
2010,04,02,12,47,49.90
2010,04,02,12,48,46.70
2010,04,02,12,49,51.50
2010,04,02,12,50,46.70
2010,04,02,12,51,45.10
2010,04,02,12,52,53.10
2010,04,02,12,53,48.30
2010,04,02,12,54,40.20
2010,04,02,12,55,45.10
2010,04,02,12,56,41.80
2010,04,02,12,57,61.20
2010,04,02,12,58,46.70
2010,04,02,12,59,46.70
2010,04,02,13,00,40.20
2010,04,02,13,01,53.10
2010,04,02,13,02,54.70
2010,04,02,13,03,49.90
2010,04,02,13,04,46.70
2010,04,02,13,05,53.10
2010,04,02,13,06,40.20
2010,04,02,13,07,53.10
2010,04,02,13,08,43.50
2010,04,02,13,09,43.50
2010,04,02,13,10,53.10
2010,04,02,13,11,43.50
2010,04,02,13,12,41.80
2010,04,02,13,13,38.60
2010,04,02,13,14,66.00
2010,04,02,13,15,51.50
2010,04,02,13,16,54.70
2010,04,02,13,17,53.10
2010,04,02,13,18,45.10
2010,04,02,13,19,45.10
2010,04,02,13,20,56.30
2010,04,02,13,21,53.10
2010,04,02,13,22,62.70
2010,04,02,13,23,54.70
2010,04,02,13,24,48.30
2010,04,02,13,25,45.10
2010,04,02,13,26,48.30
2010,04,02,13,27,51.50
2010,04,02,13,28,53.10
2010,04,02,13,29,54.70
2010,04,02,13,30,48.30
2010,04,02,13,31,40.20
2010,04,02,13,32,53.10
2010,04,02,13,33,45.10
2010,04,02,13,34,48.30
2010,04,02,13,35,51.50
2010,04,02,13,36,38.60
2010,04,02,13,37,37.00
2010,04,02,13,38,46.70
2010,04,02,13,39,35.40
2010,04,02,13,40,41.80
2010,04,02,13,41,43.50
2010,04,02,13,42,38.60
2010,04,02,13,43,45.10
2010,04,02,13,44,45.10
2010,04,02,13,45,43.50
2010,04,02,13,46,33.80
2010,04,02,13,47,41.80
2010,04,02,13,48,48.30
2010,04,02,13,49,37.00
2010,04,02,13,50,46.70
2010,04,02,13,51,38.60
2010,04,02,13,52,43.50
2010,04,02,13,53,43.50
2010,04,02,13,54,37.00
2010,04,02,13,55,41.80
2010,04,02,13,56,40.20
2010,04,02,13,57,46.70
2010,04,02,13,58,38.60
2010,04,02,13,59,40.20
2010,04,02,14,00,45.10
2010,04,02,14,01,37.00
2010,04,02,14,02,32.20
2010,04,02,14,03,41.80
2010,04,02,14,04,38.60
2010,04,02,14,05,41.80
2010,04,02,14,06,48.30
2010,04,02,14,07,49.90
2010,04,02,14,08,45.10
2010,04,02,14,09,46.70
2010,04,02,14,10,35.40
2010,04,02,14,11,45.10
2010,04,02,14,12,43.50
2010,04,02,14,13,41.80
2010,04,02,14,14,53.10
2010,04,02,14,15,41.80
2010,04,02,14,16,33.80
2010,04,02,14,17,33.80
2010,04,02,14,18,41.80
2010,04,02,14,19,46.70
2010,04,02,14,20,45.10
2010,04,02,14,21,32.20
2010,04,02,14,22,30.60
2010,04,02,14,23,37.00
2010,04,02,14,24,30.60
2010,04,02,14,25,35.40
2010,04,02,14,26,43.50
2010,04,02,14,27,33.80
2010,04,02,14,28,27.40
2010,04,02,14,29,22.50
2010,04,02,14,30,29.00
2010,04,02,14,31,30.60
2010,04,02,14,32,32.20
2010,04,02,14,33,38.60
2010,04,02,14,34,33.80
2010,04,02,14,35,40.20
2010,04,02,14,36,46.70
2010,04,02,14,37,32.20
2010,04,02,14,38,35.40
2010,04,02,14,39,30.60
2010,04,02,14,40,22.50
2010,04,02,14,41,33.80
2010,04,02,14,42,35.40
2010,04,02,14,43,46.70
2010,04,02,14,44,38.60
2010,04,02,14,45,40.20
2010,04,02,14,46,33.80
2010,04,02,14,47,33.80
2010,04,02,14,48,33.80
2010,04,02,14,49,32.20
2010,04,02,14,50,33.80
2010,04,02,14,51,29.00
2010,04,02,14,52,25.70
2010,04,02,14,53,33.80
2010,04,02,14,54,37.00
2010,04,02,14,55,37.00
2010,04,02,14,56,35.40
2010,04,02,14,57,32.20
2010,04,02,14,58,37.00
2010,04,02,14,59,32.20
2010,04,02,15,00,37.00
2010,04,02,15,01,41.80
2010,04,02,15,02,38.60
2010,04,02,15,03,33.80
2010,04,02,15,04,32.20
2010,04,02,15,05,40.20
2010,04,02,15,06,37.00
2010,04,02,15,07,37.00
2010,04,02,15,08,33.80
2010,04,02,15,09,37.00
2010,04,02,15,10,35.40
2010,04,02,15,11,35.40
2010,04,02,15,12,41.80
2010,04,02,15,13,35.40
2010,04,02,15,14,32.20
2010,04,02,15,15,33.80
2010,04,02,15,16,35.40
2010,04,02,15,17,30.60
2010,04,02,15,18,29.00
2010,04,02,15,19,30.60
2010,04,02,15,20,24.20
2010,04,02,15,21,27.40
2010,04,02,15,22,32.20
2010,04,02,15,23,33.80
2010,04,02,15,24,33.80
2010,04,02,15,25,33.80
2010,04,02,15,26,30.60
2010,04,02,15,27,37.00
2010,04,02,15,28,32.20
2010,04,02,15,29,29.00
2010,04,02,15,30,30.60
2010,04,02,15,31,32.20
2010,04,02,15,32,35.40
2010,04,02,15,33,30.60
2010,04,02,15,34,29.00
2010,04,02,15,35,27.40
2010,04,02,15,36,30.60
2010,04,02,15,37,25.70
2010,04,02,15,38,20.90
2010,04,02,15,39,24.20
2010,04,02,15,40,33.80
2010,04,02,15,41,32.20
2010,04,02,15,42,27.40
2010,04,02,15,43,29.00
2010,04,02,15,44,24.20
2010,04,02,15,45,22.50
2010,04,02,15,46,16.10
2010,04,02,15,47,25.70
2010,04,02,15,48,32.20
2010,04,02,15,49,35.40
2010,04,02,15,50,24.20
2010,04,02,15,51,24.20
2010,04,02,15,52,24.20
2010,04,02,15,53,24.20
2010,04,02,15,54,25.70
2010,04,02,15,55,25.70
2010,04,02,15,56,17.70
2010,04,02,15,57,22.50
2010,04,02,15,58,17.70
2010,04,02,15,59,24.20
2010,04,02,16,00,22.50
2010,04,02,16,01,20.90
2010,04,02,16,02,30.60
2010,04,02,16,03,25.70
2010,04,02,16,04,22.50
2010,04,02,16,05,32.20
2010,04,02,16,06,24.20
2010,04,02,16,07,25.70
2010,04,02,16,08,27.40
2010,04,02,16,09,20.90
2010,04,02,16,10,24.20
2010,04,02,16,11,27.40
2010,04,02,16,12,14.50
2010,04,02,16,13,17.70
2010,04,02,16,14,19.30
2010,04,02,16,15,17.70
2010,04,02,16,16,30.60
2010,04,02,16,17,24.20
2010,04,02,16,18,24.20
2010,04,02,16,19,29.00
2010,04,02,16,20,29.00
2010,04,02,16,21,16.10
2010,04,02,16,22,32.20
2010,04,02,16,23,24.20
2010,04,02,16,24,22.50
2010,04,02,16,25,20.90
2010,04,02,16,26,30.60
2010,04,02,16,27,29.00
2010,04,02,16,28,27.40
2010,04,02,16,29,29.00
2010,04,02,16,30,24.20
2010,04,02,16,31,22.50
2010,04,02,16,32,27.40
2010,04,02,16,33,32.20
2010,04,02,16,34,32.20
2010,04,02,16,35,29.00
2010,04,02,16,36,32.20
2010,04,02,16,37,33.80
2010,04,02,16,38,29.00
2010,04,02,16,39,32.20
2010,04,02,16,40,29.00
2010,04,02,16,41,24.20
2010,04,02,16,42,32.20
2010,04,02,16,43,35.40
2010,04,02,16,44,30.60
2010,04,02,16,45,30.60
2010,04,02,16,46,37.00
2010,04,02,16,47,32.20
2010,04,02,16,48,29.00
2010,04,02,16,49,25.70
2010,04,02,16,50,35.40
2010,04,02,16,51,32.20
2010,04,02,16,52,29.00
2010,04,02,16,53,27.40
2010,04,02,16,54,19.30
2010,04,02,16,55,22.50
2010,04,02,16,56,29.00
2010,04,02,16,57,30.60
2010,04,02,16,58,29.00
2010,04,02,16,59,27.40
2010,04,02,17,00,22.50
2010,04,02,17,01,19.30
2010,04,02,17,02,27.40
2010,04,02,17,03,27.40
2010,04,02,17,04,30.60
2010,04,02,17,05,24.20
2010,04,02,17,06,19.30
2010,04,02,17,07,24.20
2010,04,02,17,08,29.00
2010,04,02,17,09,20.90
2010,04,02,17,10,20.90
2010,04,02,17,11,19.30
2010,04,02,17,12,20.90
2010,04,02,17,13,17.70
2010,04,02,17,14,22.50
2010,04,02,17,15,19.30
2010,04,02,17,16,22.50
2010,04,02,17,17,20.90
2010,04,02,17,18,17.70
2010,04,02,17,19,17.70
2010,04,02,17,20,27.40
2010,04,02,17,21,16.10